#timestamp,LO_Frequency,Hit,StdDev 
1558195215.7,286046998.5,N
1558195235.6,286047000.5,N
1558195255.4,286047001.0,N
1558195275.2,286047000.9,N
1558195295.1,286047000.4,N
1558195296.0,286047000.4,N
1558195315.8,286046999.8,N
1558195335.6,286047002.6,N
1558195355.5,286047003.4,N
1558195375.3,286047006.0,N
1558195395.1,286047005.9,N
1558195415.8,286047003.4,N
1558195435.7,286047002.0,N
1558195455.5,286047003.2,N
1558195475.3,286047001.9,N
1558195495.2,286047002.5,N
1558195515.9,286047002.2,N
1558195535.7,286047002.3,N
1558195555.6,286047004.3,N
1558195575.4,286047002.2,N
1558195595.2,286047002.9,N
1558195615.0,286047004.3,N
1558195616.0,286047004.3,N
1558195635.8,286047004.2,N
1558195655.6,286047004.1,N
1558195675.4,286047003.6,N
1558195695.3,286047003.4,N
1558195715.1,286047003.1,N
1558195735.8,286047003.6,N
1558195755.7,286047004.4,N
1558195775.5,286047004.4,N
1558195795.3,286047004.2,N
1558195815.2,286047003.6,N
1558195835.9,286047003.2,N
1558195855.7,286047005.9,Y
1558195875.6,286047000.5,P
1558195895.4,286047001.5,N
1558195915.2,286047001.6,N
1558195935.1,286047002.0,N
1558195936.0,286047002.0,N
1558195955.8,286047001.8,N
1558195975.6,286047001.9,N
1558195995.5,286047002.2,Y
1558196015.3,286047002.8,P
1558196035.1,286047000.5,N
1558196055.9,286046999.8,N
1558196075.7,286047000.3,N
1558196095.5,286046998.5,N
1558196115.3,286047001.2,N
1558196135.2,286046998.1,N
1558196155.9,286047000.7,N
1558196175.7,286046999.8,N
1558196195.6,286047002.7,N
1558196215.4,286047002.6,N
1558196235.2,286047002.8,N
1558196255.1,286047000.3,N
1558196256.0,286047000.3,N
1558196275.8,286047000.1,N
1558196295.6,286046999.7,N
1558196315.4,286046999.9,N
1558196335.3,286047002.4,N
1558196355.1,286046999.7,N
1558196375.8,286047004.0,N
1558196395.7,286047003.9,N
1558196415.5,286047002.0,N
1558196435.3,286047004.3,N
1558196455.2,286047002.6,N
1558196475.9,286047002.5,N
1558196495.7,286047002.6,N
1558196515.6,286046999.9,N
1558196535.4,286047000.7,N
1558196555.2,286046998.9,N
1558196575.0,286046998.1,N
1558196575.9,286046998.1,N
1558196595.8,286047001.0,N
1558196615.6,286047002.0,N
1558196635.4,286047001.6,N
1558196655.3,286047004.4,N
1558196675.1,286047003.9,N
1558196695.8,286047004.4,N
1558196715.7,286047005.6,Y
1558196735.5,286047003.8,P
1558196755.3,286047005.2,P
1558196775.2,286047005.0,P
1558196795.9,286047006.4,Y
1558196815.7,286047005.8,P
1558196835.6,286047005.2,P
1558196855.4,286047007.1,P
1558196875.2,286047006.9,Y
1558196895.1,286047002.1,P
1558196896.0,286047002.1,N
1558196915.8,286047001.1,N
1558196935.6,286046998.8,N
1558196955.5,286046998.9,N
1558196975.3,286046998.8,N
1558196995.1,286046998.7,N
1558197015.9,286046999.1,N
1558197035.7,286046999.0,N
1558197055.5,286047001.1,N
1558197075.3,286047001.2,N
1558197095.2,286047001.0,N
1558197115.0,286046998.1,N
1558197115.9,286046998.1,N
1558197135.7,286047000.3,N
1558197155.6,286047000.9,N
1558197175.4,286047000.3,N
1558197195.2,286047001.3,N
1558197215.1,286047004.1,N
1558197216.0,286047004.1,N
1558197235.8,286047003.6,N
1558197255.6,286047003.3,N
1558197275.5,286047005.3,N
1558197295.3,286047007.6,Y
1558197315.1,286047008.7,P
1558197335.9,286047008.7,N
1558197355.7,286047008.3,N
1558197375.5,286047008.3,N
1558197395.3,286047006.1,N
1558197415.2,286047009.2,Y
1558197435.0,286046999.9,P
1558197435.9,286046999.9,N
1558197455.7,286047002.4,N
1558197475.6,286047002.6,N
1558197495.4,286047002.2,N
1558197515.2,286047002.3,N
1558197535.1,286047001.4,N
1558197536.0,286047001.4,N
1558197555.8,286047004.2,N
1558197575.6,286047003.2,N
1558197595.5,286047003.2,N
1558197615.3,286047005.1,N
1558197635.1,286047007.6,Y
1558197655.9,286047001.9,P
1558197675.7,286047001.3,P
1558197695.5,286047003.9,P
1558197715.4,286047005.3,Y
1558197735.2,286047003.6,P
1558197755.0,286047005.8,P
1558197755.9,286047005.8,P
1558197775.8,286047007.1,Y
1558197795.6,286047004.4,P
1558197815.4,286047004.4,P
1558197835.3,286047001.9,P
1558197855.1,286047001.8,N
1558197856.0,286047001.8,N
1558197875.8,286047001.5,N
1558197895.7,286047003.8,N
1558197915.5,286047004.4,Y
1558197935.3,286047000.8,P
1558197955.2,286047000.6,N
1558197975.9,286047000.0,N
1558197995.7,286046999.8,N
1558198015.5,286047002.3,N
1558198035.4,286047001.0,N
1558198055.2,286047000.9,N
1558198075.0,286047000.4,N
1558198075.9,286047000.4,N
1558198095.8,286046999.7,N
1558198115.6,286047002.0,N
1558198135.4,286047002.6,N
1558198155.3,286047001.5,N
1558198175.1,286047004.3,Y
1558198176.0,286047004.3,P
1558198195.8,286047002.6,N
1558198215.7,286047001.5,N
1558198235.5,286047001.8,N
1558198255.3,286047004.2,Y
1558198275.2,286047002.7,P
1558198295.9,286047001.5,P
1558198315.7,286047001.7,P
1558198335.6,286047004.3,Y
1558198355.4,286047000.1,P
1558198375.2,286047003.7,P
1558198395.1,286047005.5,P
1558198396.0,286047005.5,N
1558198415.8,286047005.2,N
1558198435.6,286047007.4,Y
1558198455.5,286047001.5,P
1558198475.3,286047001.3,N
1558198495.1,286047002.6,N
1558198515.9,286047002.3,N
1558198535.7,286046999.9,N
1558198555.5,286047000.3,N
1558198575.3,286046998.5,N
1558198595.2,286047000.9,N
1558198615.0,286047001.1,N
1558198615.9,286047001.1,N
1558198635.7,286047000.8,N
1558198655.6,286047002.4,N
1558198675.4,286047003.5,N
1558198695.2,286047003.3,N
1558198715.1,286047003.5,N
1558198716.0,286047003.5,N
1558198735.8,286047005.2,Y
1558198755.6,286047005.1,P
1558198775.5,286047007.1,P
1558198795.3,286047009.2,P
